Total_Precipitation_Accumulation
0.43 0.46 0.38 0.29 0.23 0.19 0.15 0.12 0.07 0.04 0.02 0.02 0.02 0.02 0.03 0.04 0.03 0.02 0.01 0.01 0.03 0.05 0.06 0.08 0.14 0.21 0.22 0.21 0.22 0.29 0.33 0.26 0.17 0.15 0.12 0.14 0.11 0.05 0.04 0.03 0.01 0.00 0.00
0.35 0.35 0.30 0.25 0.20 0.17 0.14 0.10 0.06 0.03 0.03 0.02 0.02 0.03 0.04 0.03 0.02 0.01 0.01 0.01 0.01 0.01 0.02 0.03 0.08 0.14 0.18 0.20 0.22 0.25 0.28 0.31 0.27 0.24 0.20 0.16 0.15 0.12 0.08 0.04 0.03 0.02 0.01
0.37 0.31 0.30 0.27 0.23 0.20 0.13 0.08 0.05 0.05 0.05 0.05 0.03 0.03 0.05 0.06 0.04 0.02 0.02 0.01 0.01 0.01 0.01 0.02 0.05 0.08 0.12 0.17 0.24 0.30 0.32 0.30 0.29 0.27 0.26 0.23 0.17 0.15 0.10 0.05 0.03 0.03 0.04
0.57 0.45 0.37 0.31 0.24 0.19 0.14 0.13 0.10 0.10 0.11 0.10 0.07 0.07 0.11 0.13 0.11 0.07 0.04 0.03 0.02 0.01 0.01 0.01 0.02 0.05 0.10 0.21 0.31 0.37 0.38 0.36 0.36 0.36 0.36 0.33 0.24 0.16 0.10 0.06 0.05 0.04 0.03
0.69 0.60 0.45 0.33 0.24 0.21 0.25 0.28 0.23 0.18 0.20 0.17 0.14 0.12 0.15 0.18 0.17 0.15 0.11 0.07 0.04 0.02 0.01 0.01 0.01 0.03 0.07 0.16 0.28 0.43 0.45 0.43 0.42 0.44 0.43 0.36 0.26 0.17 0.11 0.08 0.06 0.05 0.03
0.67 0.64 0.48 0.40 0.33 0.29 0.32 0.40 0.39 0.28 0.26 0.24 0.20 0.15 0.13 0.16 0.22 0.20 0.15 0.11 0.07 0.04 0.02 0.01 0.01 0.01 0.03 0.07 0.12 0.24 0.35 0.41 0.44 0.43 0.44 0.41 0.33 0.24 0.19 0.13 0.07 0.04 0.03
0.44 0.44 0.35 0.33 0.39 0.40 0.42 0.42 0.35 0.27 0.29 0.30 0.25 0.18 0.13 0.15 0.18 0.16 0.18 0.20 0.16 0.10 0.05 0.02 0.02 0.01 0.02 0.03 0.07 0.13 0.17 0.21 0.25 0.28 0.30 0.30 0.31 0.28 0.24 0.17 0.11 0.08 0.08
0.20 0.16 0.13 0.20 0.29 0.30 0.29 0.26 0.22 0.21 0.27 0.34 0.28 0.24 0.23 0.19 0.19 0.23 0.21 0.21 0.23 0.21 0.15 0.06 0.03 0.01 0.02 0.04 0.05 0.07 0.11 0.14 0.15 0.15 0.16 0.19 0.22 0.26 0.27 0.29 0.25 0.17 0.10
0.02 0.02 0.04 0.05 0.06 0.06 0.05 0.07 0.10 0.14 0.18 0.16 0.20 0.33 0.31 0.26 0.30 0.28 0.21 0.18 0.21 0.23 0.20 0.15 0.10 0.06 0.06 0.05 0.06 0.06 0.06 0.09 0.13 0.19 0.27 0.28 0.29 0.33 0.35 0.36 0.31 0.26 0.21
0.00 0.00 0.00 0.00 0.00 0.00 0.00 0.01 0.03 0.06 0.08 0.08 0.11 0.21 0.27 0.28 0.26 0.15 0.17 0.20 0.21 0.23 0.20 0.16 0.19 0.15 0.12 0.09 0.08 0.11 0.09 0.08 0.15 0.22 0.26 0.28 0.28 0.31 0.36 0.37 0.39 0.40 0.36
0.00 0.00 0.00 0.00 0.00 0.00 0.00 0.00 0.00 0.00 0.01 0.04 0.06 0.06 0.08 0.09 0.09 0.08 0.13 0.14 0.14 0.17 0.14 0.11 0.10 0.13 0.12 0.12 0.10 0.09 0.11 0.09 0.11 0.14 0.12 0.13 0.13 0.15 0.20 0.24 0.30 0.34 0.36
0.00 0.00 0.00 0.00 0.00 0.00 0.00 0.00 0.00 0.00 0.00 0.00 0.01 0.01 0.01 0.01 0.01 0.02 0.02 0.03 0.05 0.06 0.05 0.06 0.06 0.08 0.10 0.12 0.10 0.09 0.09 0.06 0.07 0.06 0.04 0.04 0.04 0.06 0.07 0.10 0.14 0.19 0.23
0.00 0.00 0.00 0.00 0.00 0.00 0.00 0.00 0.00 0.00 0.00 0.00 0.00 0.00 0.01 0.02 0.02 0.02 0.01 0.01 0.02 0.02 0.03 0.07 0.11 0.14 0.11 0.09 0.09 0.08 0.08 0.08 0.08 0.06 0.05 0.03 0.02 0.03 0.04 0.05 0.06 0.08 0.11
0.00 0.00 0.00 0.00 0.00 0.00 0.00 0.00 0.00 0.00 0.00 0.00 0.01 0.02 0.04 0.05 0.03 0.02 0.02 0.03 0.03 0.02 0.03 0.09 0.14 0.17 0.12 0.10 0.09 0.07 0.08 0.09 0.09 0.07 0.05 0.02 0.02 0.02 0.04 0.05 0.05 0.04 0.04
0.00 0.00 0.00 0.00 0.00 0.00 0.00 0.00 0.00 0.00 0.00 0.01 0.01 0.01 0.01 0.02 0.02 0.02 0.04 0.05 0.05 0.04 0.06 0.15 0.23 0.20 0.15 0.11 0.08 0.08 0.08 0.08 0.07 0.06 0.05 0.04 0.03 0.03 0.02 0.02 0.02 0.02 0.03
0.00 0.00 0.00 0.00 0.00 0.00 0.00 0.00 0.00 0.00 0.01 0.01 0.01 0.01 0.01 0.02 0.03 0.06 0.09 0.12 0.11 0.13 0.16 0.28 0.33 0.32 0.28 0.21 0.13 0.11 0.11 0.11 0.09 0.08 0.07 0.05 0.04 0.04 0.04 0.04 0.03 0.04 0.04
0.00 0.00 0.00 0.00 0.00 0.00 0.00 0.00 0.00 0.00 0.00 0.00 0.00 0.01 0.01 0.03 0.06 0.13 0.18 0.20 0.24 0.40 0.53 0.56 0.55 0.51 0.48 0.37 0.24 0.18 0.12 0.09 0.07 0.06 0.05 0.04 0.03 0.03 0.03 0.03 0.03 0.03 0.03
0.00 0.00 0.00 0.00 0.00 0.00 0.00 0.00 0.01 0.01 0.01 0.01 0.00 0.00 0.01 0.02 0.08 0.18 0.28 0.37 0.42 0.57 0.69 0.70 0.74 0.70 0.62 0.45 0.27 0.18 0.11 0.06 0.04 0.03 0.03 0.02 0.01 0.02 0.01 0.01 0.01 0.01 0.01
0.00 0.00 0.00 0.00 0.00 0.00 0.00 0.00 0.00 0.00 0.00 0.01 0.00 0.00 0.00 0.01 0.03 0.08 0.14 0.19 0.21 0.29 0.37 0.42 0.45 0.43 0.37 0.25 0.14 0.09 0.04 0.01 0.01 0.00 0.00 0.00 0.00 0.00 0.01 0.01 0.02 0.02 0.02
0.00 0.00 0.00 0.00 0.00 0.00 0.00 0.00 0.00 0.00 0.00 0.01 0.01 0.00 0.00 0.01 0.01 0.02 0.03 0.04 0.06 0.09 0.11 0.12 0.12 0.10 0.08 0.05 0.03 0.02 0.02 0.01 0.00 0.00 0.00 0.01 0.01 0.01 0.01 0.02 0.02 0.03 0.03
0.00 0.00 0.00 0.00 0.00 0.00 0.00 0.00 0.00 0.00 0.00 0.00 0.00 0.00 0.00 0.01 0.01 0.02 0.02 0.02 0.02 0.03 0.03 0.04 0.04 0.03 0.02 0.01 0.01 0.01 0.01 0.01 0.00 0.00 0.00 0.01 0.01 0.02 0.02 0.02 0.02 0.03 0.03
0.00 0.00 0.00 0.00 0.00 0.00 0.00 0.00 0.00 0.00 0.00 0.00 0.00 0.00 0.01 0.03 0.03 0.03 0.02 0.02 0.02 0.03 0.02 0.02 0.02 0.02 0.01 0.01 0.01 0.01 0.00 0.00 0.00 0.00 0.01 0.01 0.01 0.01 0.01 0.02 0.03 0.04 0.03
0.00 0.00 0.00 0.00 0.00 0.00 0.00 0.00 0.00 0.00 0.00 0.00 0.00 0.00 0.00 0.01 0.02 0.02 0.01 0.01 0.02 0.01 0.01 0.01 0.01 0.01 0.01 0.00 0.00 0.00 0.00 0.00 0.00 0.01 0.01 0.02 0.02 0.02 0.03 0.03 0.04 0.03 0.03
0.00 0.00 0.00 0.00 0.00 0.00 0.00 0.00 0.00 0.00 0.00 0.00 0.00 0.00 0.00 0.00 0.01 0.01 0.01 0.01 0.01 0.01 0.00 0.00 0.00 0.00 0.00 0.00 0.00 0.00 0.00 0.00 0.00 0.01 0.03 0.03 0.03 0.06 0.07 0.07 0.06 0.07 0.09
0.00 0.00 0.00 0.00 0.00 0.00 0.00 0.00 0.00 0.00 0.00 0.00 0.00 0.00 0.00 0.01 0.01 0.00 0.00 0.00 0.00 0.00 0.00 0.00 0.00 0.00 0.00 0.00 0.00 0.00 0.01 0.01 0.01 0.01 0.01 0.01 0.02 0.04 0.06 0.06 0.06 0.06 0.06
0.00 0.00 0.00 0.00 0.00 0.00 0.00 0.00 0.00 0.00 0.00 0.00 0.00 0.00 0.01 0.01 0.01 0.00 0.00 0.00 0.00 0.00 0.00 0.00 0.00 0.00 0.00 0.00 0.00 0.01 0.01 0.01 0.01 0.01 0.01 0.01 0.02 0.03 0.03 0.03 0.02 0.01 0.01